Home   Weather   Phoenix   Past weeks
Flag for USA

Past Weather in Phoenix, Arizona, USA — Yesterday and Last 2 Weeks

Now
70 °F

Partly sunny.


Feels Like: 76 °F
Forecast: 46 / 69 °F
Wind: 5 mph from Northwest

Location: Phoenix Sky Harbor International Airport

Current Time: Dec 9, 2018 at 4:56:10 pm

Latest Report: Dec 9, 2018 at 3:51 pm


Visibility: 10 mi

Pressure: 30.16 "Hg

Humidity: 32%

Dew Point: 39 °F

Location of PhoenixLocation

Past Weather in Phoenix — Graph

°F

Phoenix Temperature Yesterday

Maximum temperature yesterday: 67 °F (at 2:51 pm)
Minimum temperature yesterday: 50 °F (at 5:51 am)
Average temperature yesterday: 57 °F

High & Low Weather Summary for the Past Weeks

 TemperatureHumidityPressure
High76 °F (Nov 28, 2:51 pm)100% (Nov 29, 11:32 pm)30.29 "Hg (Nov 29, 11:32 pm)
Low42 °F (Dec 3, 5:51 am)13% (Nov 25, 2:51 pm)29.67 "Hg (Nov 29, 6:51 pm)
Average58 °F55%29.97 "Hg
* Reported Nov 24 2:51 pm — Dec 9 2:51 pm, Phoenix. Weather by CustomWeather, © 2018

Note: Actual official high and low records may vary slightly from our data, if they occured in-between our weather recording intervals... More about our weather records

Advertising

Phoenix Weather History for the Previous 24 Hours

Scroll right to see more
 ConditionsComfort  
Time TempWeatherWind HumidityBarometerVisibility
2:51 pm
Sun, Dec 9
69 °FScattered clouds.No wind36%30.18 "Hg10 mi
1:51 pm69 °FPassing clouds.5 mph38%30.20 "Hg10 mi
12:51 pm66 °FPassing clouds.No wind43%30.23 "Hg10 mi
11:51 am64 °FPassing clouds.No wind47%30.27 "Hg10 mi
10:51 am60 °FScattered clouds.No wind58%30.29 "Hg10 mi
9:51 am56 °FPartly sunny.3 mph67%30.29 "Hg10 mi
8:51 am53 °FPartly sunny.5 mph74%30.28 "Hg10 mi
7:51 am49 °FPartly sunny.No wind86%30.28 "Hg10 mi
6:51 am48 °FPassing clouds.3 mph93%30.26 "Hg10 mi
5:51 am49 °FPassing clouds.3 mph90%30.24 "Hg10 mi
4:51 am49 °FPassing clouds.No wind93%30.23 "Hg10 mi
3:51 am50 °FPassing clouds.3 mph89%30.23 "Hg10 mi
2:51 am51 °FPassing clouds.6 mph86%30.23 "Hg10 mi
1:51 am52 °FPassing clouds.3 mph86%30.23 "Hg10 mi
12:51 am52 °FPassing clouds.5 mph89%30.24 "Hg10 mi
11:51 pm
Sat, Dec 8
55 °FPassing clouds.5 mph80%30.25 "Hg10 mi
10:51 pm56 °FPassing clouds.No wind81%30.25 "Hg10 mi
9:51 pm57 °FPassing clouds.No wind78%30.24 "Hg10 mi
8:51 pm57 °FPassing clouds.No wind78%30.22 "Hg10 mi
7:51 pm58 °FPassing clouds.3 mph72%30.21 "Hg10 mi
6:51 pm60 °FPassing clouds.3 mph69%30.20 "Hg10 mi
5:51 pm64 °FPassing clouds.5 mph54%30.19 "Hg10 mi
4:51 pm66 °FPassing clouds.6 mph52%30.17 "Hg10 mi
Weather by CustomWeather, © 2018

See weather overview